QPF
0.00 0.00 0.00 0.00 0.00 0.00 0.00 0.00 0.00 0.00 0.00 0.00 0.00 0.00 0.00 0.00 0.00 0.01 0.01 0.04 0.10 0.18 0.17 0.11 0.13 0.21 0.24 0.23 0.21 0.22 0.19 0.08 0.03 0.03 0.05 0.05 0.06 0.06 0.05 0.03 0.02 0.07 0.21 0.03 0.00 0.00 0.00 0.00 0.00
0.00 0.00 0.00 0.00 0.00 0.00 0.00 0.00 0.00 0.00 0.00 0.00 0.00 0.00 0.00 0.00 0.00 0.01 0.00 0.03 0.06 0.12 0.13 0.05 0.05 0.04 0.06 0.14 0.24 0.24 0.26 0.24 0.10 0.05 0.05 0.07 0.05 0.06 0.08 0.05 0.01 0.02 0.07 0.04 0.00 0.00 0.00 0.00 0.00
0.00 0.00 0.00 0.00 0.00 0.00 0.00 0.00 0.00 0.00 0.00 0.00 0.00 0.00 0.00 0.00 0.00 0.00 0.01 0.05 0.11 0.05 0.07 0.08 0.08 0.03 0.01 0.08 0.15 0.22 0.18 0.28 0.24 0.16 0.09 0.08 0.07 0.05 0.11 0.07 0.04 0.03 0.06 0.26 0.02 0.00 0.00 0.00 0.00
0.00 0.00 0.00 0.00 0.00 0.00 0.00 0.00 0.00 0.00 0.00 0.00 0.00 0.00 0.00 0.00 0.00 0.00 0.00 0.01 0.04 0.00 0.01 0.08 0.11 0.02 0.04 0.03 0.14 0.26 0.22 0.17 0.18 0.22 0.21 0.21 0.19 0.16 0.10 0.10 0.07 0.07 0.13 0.26 0.03 0.00 0.00 0.00 0.00
0.00 0.00 0.00 0.00 0.00 0.00 0.00 0.00 0.00 0.00 0.00 0.00 0.00 0.00 0.00 0.00 0.00 0.00 0.00 0.00 0.01 0.01 0.00 0.01 0.08 0.04 0.04 0.04 0.09 0.14 0.10 0.06 0.12 0.23 0.26 0.28 0.27 0.19 0.19 0.19 0.14 0.08 0.18 0.25 0.06 0.01 0.00 0.00 0.00
0.00 0.00 0.00 0.00 0.00 0.00 0.00 0.00 0.00 0.00 0.00 0.00 0.00 0.00 0.00 0.00 0.00 0.00 0.00 0.00 0.00 0.00 0.00 0.00 0.04 0.08 0.03 0.01 0.00 0.01 0.10 0.11 0.13 0.12 0.15 0.17 0.21 0.19 0.19 0.21 0.21 0.19 0.13 0.20 0.15 0.02 0.00 0.00 0.00
0.00 0.00 0.00 0.00 0.00 0.00 0.00 0.00 0.00 0.00 0.00 0.00 0.00 0.00 0.00 0.00 0.00 0.00 0.00 0.00 0.00 0.00 0.00 0.00 0.01 0.05 0.07 0.05 0.03 0.01 0.01 0.03 0.07 0.09 0.08 0.07 0.08 0.11 0.15 0.18 0.18 0.16 0.13 0.13 0.09 0.01 0.00 0.00 0.00
0.00 0.00 0.00 0.00 0.00 0.00 0.00 0.00 0.00 0.00 0.00 0.00 0.00 0.00 0.00 0.00 0.00 0.00 0.00 0.00 0.00 0.00 0.00 0.00 0.00 0.01 0.01 0.02 0.02 0.02 0.03 0.01 0.01 0.01 0.01 0.02 0.02 0.04 0.07 0.07 0.10 0.11 0.09 0.06 0.04 0.00 0.00 0.00 0.00
0.00 0.00 0.00 0.00 0.00 0.00 0.00 0.00 0.00 0.00 0.00 0.00 0.00 0.00 0.00 0.00 0.00 0.00 0.00 0.00 0.00 0.00 0.00 0.00 0.00 0.00 0.01 0.01 0.00 0.00 0.00 0.00 0.00 0.00 0.00 0.00 0.00 0.00 0.01 0.02 0.05 0.07 0.04 0.02 0.01 0.00 0.00 0.00 0.00
0.00 0.00 0.00 0.00 0.00 0.00 0.00 0.00 0.00 0.00 0.00 0.00 0.00 0.00 0.00 0.00 0.00 0.00 0.00 0.00 0.00 0.00 0.00 0.00 0.00 0.00 0.00 0.00 0.00 0.00 0.00 0.00 0.00 0.00 0.00 0.00 0.00 0.00 0.00 0.00 0.00 0.00 0.00 0.00 0.00 0.00 0.00 0.00 0.00
0.00 0.00 0.00 0.00 0.00 0.00 0.00 0.00 0.00 0.00 0.00 0.00 0.00 0.00 0.00 0.00 0.00 0.00 0.00 0.00 0.00 0.00 0.00 0.00 0.00 0.00 0.00 0.00 0.00 0.00 0.00 0.00 0.00 0.00 0.00 0.00 0.00 0.00 0.00 0.00 0.00 0.00 0.00 0.00 0.00 0.00 0.00 0.00 0.00
0.00 0.00 0.00 0.00 0.00 0.00 0.00 0.00 0.00 0.00 0.00 0.00 0.00 0.00 0.00 0.00 0.00 0.00 0.00 0.00 0.00 0.00 0.00 0.00 0.00 0.00 0.00 0.00 0.00 0.00 0.00 0.00 0.00 0.00 0.00 0.00 0.00 0.00 0.00 0.00 0.00 0.00 0.00 0.00 0.00 0.00 0.00 0.00 0.00
0.00 0.00 0.00 0.00 0.00 0.00 0.00 0.00 0.00 0.00 0.00 0.00 0.00 0.00 0.00 0.00 0.00 0.00 0.00 0.00 0.00 0.00 0.00 0.00 0.00 0.00 0.00 0.00 0.00 0.00 0.00 0.00 0.00 0.00 0.00 0.00 0.00 0.00 0.00 0.00 0.00 0.00 0.00 0.00 0.00 0.00 0.00 0.00 0.00
0.00 0.00 0.00 0.00 0.00 0.00 0.00 0.00 0.00 0.00 0.00 0.00 0.00 0.00 0.00 0.00 0.00 0.00 0.00 0.00 0.00 0.00 0.00 0.00 0.00 0.00 0.00 0.00 0.00 0.00 0.00 0.01 0.01 0.01 0.01 0.00 0.00 0.00 0.00 0.00 0.00 0.00 0.00 0.00 0.00 0.00 0.00 0.00 0.00
0.00 0.00 0.00 0.00 0.00 0.00 0.00 0.00 0.00 0.00 0.00 0.00 0.00 0.00 0.00 0.00 0.00 0.00 0.00 0.00 0.00 0.00 0.00 0.00 0.00 0.00 0.00 0.00 0.00 0.01 0.01 0.02 0.02 0.03 0.02 0.00 0.00 0.00 0.00 0.00 0.00 0.00 0.00 0.00 0.00 0.00 0.00 0.00 0.00
0.00 0.00 0.00 0.00 0.00 0.00 0.00 0.00 0.00 0.00 0.00 0.00 0.00 0.00 0.00 0.00 0.00 0.00 0.00 0.00 0.00 0.00 0.00 0.00 0.00 0.00 0.00 0.00 0.00 0.01 0.01 0.01 0.03 0.06 0.05 0.01 0.00 0.00 0.00 0.00 0.00 0.00 0.00 0.00 0.00 0.00 0.00 0.00 0.00
0.00 0.00 0.00 0.00 0.00 0.00 0.00 0.00 0.00 0.00 0.00 0.00 0.00 0.00 0.00 0.00 0.00 0.00 0.00 0.00 0.00 0.00 0.00 0.00 0.00 0.00 0.00 0.00 0.00 0.00 0.00 0.02 0.02 0.03 0.06 0.06 0.01 0.00 0.00 0.00 0.00 0.00 0.00 0.00 0.00 0.00 0.00 0.00 0.00
0.00 0.00 0.00 0.00 0.00 0.00 0.00 0.00 0.00 0.00 0.00 0.00 0.00 0.00 0.00 0.00 0.00 0.00 0.00 0.00 0.00 0.00 0.00 0.00 0.00 0.00 0.00 0.00 0.00 0.00 0.00 0.00 0.02 0.05 0.11 0.12 0.08 0.03 0.01 0.00 0.00 0.00 0.00 0.00 0.00 0.00 0.00 0.00 0.00
0.00 0.00 0.00 0.00 0.00 0.00 0.00 0.00 0.00 0.00 0.00 0.00 0.00 0.00 0.00 0.00 0.00 0.00 0.00 0.00 0.00 0.00 0.00 0.00 0.00 0.00 0.00 0.00 0.00 0.00 0.00 0.00 0.00 0.02 0.04 0.11 0.11 0.06 0.05 0.02 0.00 0.00 0.00 0.00 0.00 0.00 0.00 0.00 0.00
0.00 0.00 0.00 0.00 0.00 0.00 0.00 0.00 0.00 0.00 0.00 0.00 0.00 0.00 0.00 0.00 0.00 0.00 0.00 0.00 0.00 0.00 0.00 0.00 0.00 0.00 0.00 0.00 0.00 0.00 0.00 0.00 0.00 0.01 0.02 0.03 0.07 0.06 0.03 0.03 0.01 0.00 0.00 0.00 0.00 0.00 0.00 0.00 0.00
0.00 0.00 0.00 0.00 0.00 0.00 0.00 0.00 0.00 0.00 0.00 0.00 0.00 0.00 0.00 0.00 0.00 0.00 0.00 0.00 0.00 0.00 0.00 0.00 0.00 0.00 0.00 0.00 0.00 0.00 0.00 0.00 0.00 0.00 0.01 0.01 0.01 0.03 0.02 0.01 0.01 0.00 0.00 0.00 0.00 0.00 0.00 0.00 0.00
0.00 0.00 0.00 0.00 0.00 0.00 0.00 0.00 0.00 0.00 0.00 0.00 0.00 0.00 0.00 0.00 0.00 0.00 0.00 0.00 0.00 0.00 0.00 0.00 0.00 0.00 0.00 0.00 0.00 0.00 0.00 0.00 0.00 0.00 0.00 0.00 0.00 0.01 0.01 0.01 0.00 0.00 0.00 0.00 0.00 0.00 0.00 0.00 0.00
0.00 0.00 0.00 0.00 0.00 0.00 0.00 0.00 0.00 0.00 0.00 0.00 0.00 0.00 0.00 0.00 0.00 0.00 0.00 0.00 0.00 0.00 0.00 0.00 0.00 0.00 0.00 0.00 0.00 0.00 0.00 0.00 0.00 0.00 0.00 0.00 0.00 0.00 0.01 0.01 0.00 0.00 0.00 0.00 0.00 0.00 0.00 0.00 0.00
0.00 0.00 0.00 0.00 0.00 0.00 0.00 0.00 0.00 0.00 0.00 0.00 0.00 0.00 0.00 0.00 0.00 0.00 0.00 0.00 0.00 0.00 0.00 0.00 0.00 0.00 0.00 0.00 0.00 0.00 0.00 0.00 0.00 0.00 0.00 0.00 0.00 0.00 0.00 0.00 0.00 0.00 0.00 0.00 0.00 0.00 0.00 0.00 0.00
0.00 0.00 0.00 0.00 0.00 0.00 0.00 0.00 0.00 0.00 0.00 0.00 0.00 0.00 0.00 0.00 0.00 0.00 0.00 0.00 0.00 0.00 0.00 0.00 0.00 0.00 0.00 0.00 0.00 0.00 0.00 0.00 0.00 0.00 0.00 0.00 0.00 0.00 0.00 0.00 0.00 0.00 0.00 0.00 0.00 0.00 0.00 0.00 0.00
0.00 0.00 0.00 0.00 0.00 0.00 0.00 0.00 0.00 0.00 0.00 0.00 0.00 0.00 0.00 0.00 0.00 0.00 0.00 0.00 0.00 0.00 0.00 0.00 0.00 0.00 0.00 0.00 0.00 0.00 0.00 0.00 0.00 0.00 0.00 0.00 0.00 0.00 0.00 0.00 0.00 0.00 0.00 0.00 0.00 0.00 0.00 0.00 0.00
0.00 0.00 0.00 0.00 0.00 0.00 0.00 0.00 0.00 0.00 0.00 0.00 0.00 0.00 0.00 0.00 0.00 0.00 0.00 0.00 0.00 0.00 0.00 0.00 0.00 0.00 0.00 0.00 0.00 0.00 0.00 0.00 0.00 0.00 0.00 0.00 0.00 0.00 0.00 0.00 0.00 0.00 0.00 0.00 0.00 0.00 0.00 0.00 0.00
0.00 0.00 0.00 0.00 0.00 0.00 0.00 0.00 0.00 0.00 0.00 0.00 0.00 0.00 0.00 0.00 0.00 0.00 0.00 0.00 0.00 0.00 0.00 0.00 0.00 0.00 0.00 0.00 0.00 0.00 0.00 0.00 0.00 0.00 0.00 0.00 0.00 0.00 0.00 0.00 0.00 0.00 0.00 0.00 0.00 0.00 0.00 0.00 0.00
0.00 0.00 0.00 0.00 0.00 0.00 0.00 0.00 0.00 0.00 0.00 0.00 0.00 0.00 0.00 0.00 0.00 0.00 0.00 0.00 0.00 0.00 0.00 0.00 0.00 0.00 0.00 0.00 0.00 0.00 0.00 0.00 0.00 0.00 0.00 0.00 0.00 0.00 0.00 0.00 0.00 0.00 0.00 0.00 0.00 0.00 0.00 0.00 0.00
0.00 0.00 0.00 0.00 0.00 0.00 0.00 0.00 0.00 0.00 0.00 0.00 0.00 0.00 0.00 0.00 0.00 0.00 0.00 0.00 0.00 0.00 0.00 0.00 0.00 0.00 0.00 0.00 0.00 0.00 0.00 0.00 0.00 0.00 0.00 0.00 0.00 0.00 0.00 0.00 0.00 0.00 0.00 0.00 0.00 0.00 0.00 0.00 0.00
MSLP
1014.44 1013.95 1014.02 1014.35 1016.14 1018.27 1019.50 1019.46 1018.82 1018.27 1017.56 1016.92 1016.65 1016.61 1017.32 1017.48 1017.61 1017.59 1016.42 1015.91 1015.23 1014.54 1014.51 1014.64 1014.25 1013.24 1013.48 1014.34 1014.82 1013.63 1012.45 1012.25 1012.04 1012.19 1012.26 1012.17 1012.40 1012.51 1012.43 1012.46 1012.59 1012.54 1012.78 1013.10 1013.20 1013.35 1013.71 1013.90 1014.06
1014.57 1014.12 1014.55 1015.90 1017.83 1019.36 1020.03 1019.40 1018.93 1018.55 1018.04 1017.19 1017.06 1017.30 1017.47 1017.90 1017.84 1017.45 1016.90 1016.60 1015.80 1015.17 1014.98 1014.92 1015.08 1014.52 1014.19 1014.88 1014.67 1014.26 1013.46 1012.49 1012.15 1012.10 1012.07 1012.22 1012.21 1012.38 1012.43 1012.55 1012.60 1012.65 1012.75 1012.90 1013.33 1013.47 1013.67 1013.96 1014.14
1014.64 1014.77 1016.10 1017.51 1019.12 1020.26 1019.90 1019.37 1018.84 1018.46 1018.04 1017.65 1017.66 1017.87 1018.01 1018.89 1018.46 1018.67 1018.32 1017.23 1016.34 1015.91 1015.38 1015.09 1014.67 1014.78 1014.40 1014.93 1014.84 1014.27 1013.87 1013.14 1013.04 1012.70 1012.45 1012.34 1012.28 1012.31 1012.55 1012.59 1012.72 1012.75 1012.69 1012.91 1013.26 1013.59 1013.73 1014.10 1014.29
1015.14 1015.74 1017.67 1018.72 1019.85 1019.89 1019.56 1019.29 1019.07 1018.65 1018.28 1018.02 1018.22 1018.66 1018.83 1019.21 1019.34 1019.55 1018.75 1017.79 1016.80 1016.55 1016.09 1015.34 1014.71 1014.75 1014.62 1014.26 1014.23 1014.79 1013.94 1013.56 1013.62 1013.67 1013.52 1013.17 1012.81 1012.58 1012.38 1012.46 1012.47 1012.61 1012.79 1012.96 1013.27 1013.69 1013.81 1014.21 1014.37
1016.12 1017.41 1019.08 1020.26 1020.26 1019.86 1019.43 1019.21 1019.16 1019.18 1019.08 1018.91 1018.52 1019.05 1019.35 1019.47 1019.63 1019.50 1019.11 1018.60 1018.00 1017.42 1016.78 1016.13 1015.64 1015.03 1015.20 1014.63 1014.75 1014.18 1014.33 1014.15 1014.12 1014.35 1014.46 1014.11 1013.94 1013.74 1013.47 1012.93 1012.50 1012.55 1012.81 1013.07 1013.34 1013.79 1013.95 1014.33 1014.40
1017.65 1018.74 1020.32 1021.03 1020.71 1020.29 1019.65 1019.18 1019.16 1019.44 1019.35 1019.09 1019.20 1019.45 1020.09 1020.10 1019.81 1019.74 1019.42 1019.17 1018.84 1018.28 1017.58 1016.99 1016.55 1016.26 1015.86 1015.71 1014.91 1013.81 1013.98 1013.63 1013.88 1014.37 1013.51 1014.41 1014.73 1014.60 1014.32 1013.89 1012.88 1012.49 1012.90 1013.22 1013.45 1013.87 1014.27 1014.46 1014.57
1018.56 1019.77 1021.08 1021.28 1021.09 1020.63 1020.30 1019.71 1019.63 1019.61 1019.66 1019.51 1019.41 1019.84 1020.24 1020.10 1020.10 1019.91 1019.76 1019.47 1019.18 1018.84 1018.36 1017.74 1017.18 1016.30 1015.97 1015.53 1015.13 1014.94 1014.63 1013.93 1013.71 1013.03 1013.82 1014.25 1014.80 1014.71 1014.59 1014.24 1013.25 1012.10 1012.75 1013.15 1013.61 1014.11 1014.47 1014.67 1014.94
1018.93 1020.07 1021.47 1021.75 1021.59 1021.22 1020.66 1020.27 1020.22 1020.05 1019.91 1019.73 1019.55 1020.31 1020.79 1020.79 1020.48 1020.26 1019.93 1019.88 1019.27 1019.08 1018.91 1018.66 1018.00 1017.40 1016.57 1015.76 1015.50 1015.40 1015.15 1014.68 1014.28 1013.74 1013.57 1013.83 1014.54 1014.85 1014.49 1014.30 1013.24 1010.69 1012.44 1013.34 1013.79 1014.16 1014.73 1015.01 1015.19
1019.15 1020.60 1021.89 1021.77 1021.58 1021.41 1021.03 1020.90 1020.80 1020.60 1020.42 1020.26 1020.48 1020.76 1021.27 1021.43 1021.11 1020.77 1020.24 1019.49 1019.31 1019.53 1019.55 1019.04 1018.71 1017.83 1017.20 1016.31 1015.68 1015.60 1015.29 1015.21 1014.75 1014.66 1014.63 1015.00 1013.85 1013.57 1014.57 1013.97 1014.15 1013.85 1013.55 1014.07 1014.37 1014.62 1014.98 1015.18 1015.54
1020.01 1021.34 1021.62 1021.55 1021.41 1021.74 1021.64 1021.48 1021.40 1021.14 1021.20 1021.00 1021.17 1021.28 1021.46 1021.80 1021.78 1021.65 1021.57 1021.34 1020.73 1020.36 1020.04 1019.60 1019.08 1018.48 1017.54 1016.79 1016.00 1015.78 1015.48 1015.26 1015.05 1015.04 1015.20 1014.71 1014.63 1014.44 1014.63 1014.04 1013.71 1015.05 1015.71 1015.99 1015.48 1015.53 1015.48 1015.76 1016.15
1020.65 1021.41 1021.50 1021.63 1021.55 1021.58 1021.81 1021.95 1021.89 1021.82 1021.80 1021.68 1021.84 1022.03 1022.25 1022.40 1022.42 1022.42 1022.44 1022.44 1022.11 1021.34 1020.59 1020.11 1019.41 1018.80 1018.21 1017.32 1016.59 1015.84 1015.61 1015.48 1015.07 1015.18 1015.25 1014.89 1015.26 1014.94 1014.16 1015.27 1015.70 1014.58 1016.24 1017.21 1016.94 1016.30 1016.17 1016.28 1016.47
1021.63 1021.83 1021.74 1021.65 1021.69 1021.84 1022.05 1021.98 1022.18 1022.32 1022.33 1022.34 1022.56 1022.74 1023.18 1023.44 1023.68 1023.62 1023.31 1022.88 1022.24 1021.64 1021.00 1020.38 1019.82 1019.04 1018.39 1017.82 1016.96 1015.98 1015.89 1015.68 1015.61 1015.41 1015.41 1015.59 1015.66 1015.90 1015.56 1015.63 1015.73 1016.66 1015.82 1017.97 1017.66 1017.09 1017.19 1017.01 1017.05
1022.27 1022.54 1022.36 1022.29 1022.26 1022.12 1022.17 1022.43 1022.55 1022.70 1022.66 1022.63 1022.96 1023.53 1024.15 1024.39 1024.28 1024.09 1023.91 1023.48 1022.96 1022.21 1021.47 1020.78 1020.00 1019.38 1018.70 1018.01 1017.23 1016.24 1016.05 1016.06 1015.99 1015.76 1015.67 1015.84 1016.15 1016.52 1015.99 1015.90 1016.75 1016.82 1017.14 1017.34 1017.58 1017.69 1017.92 1017.71 1017.81
1022.69 1022.75 1022.77 1022.58 1022.63 1022.57 1022.58 1022.75 1022.83 1023.05 1022.95 1023.28 1023.81 1024.49 1024.92 1025.06 1025.08 1024.74 1024.25 1023.89 1023.43 1022.88 1022.16 1021.16 1020.34 1019.63 1019.14 1018.20 1017.24 1016.52 1016.03 1016.12 1016.14 1016.12 1016.12 1016.13 1016.59 1017.00 1016.63 1016.65 1017.18 1017.27 1017.08 1017.65 1017.44 1018.10 1018.58 1018.28 1018.27
1022.83 1023.16 1023.06 1023.11 1023.04 1023.13 1023.15 1023.28 1023.46 1023.43 1023.43 1024.07 1024.62 1025.12 1025.51 1025.72 1025.79 1025.80 1025.51 1024.91 1024.28 1023.33 1022.62 1021.83 1020.70 1019.99 1019.50 1018.47 1017.64 1016.72 1015.99 1016.11 1016.22 1016.31 1016.34 1016.43 1016.81 1017.14 1017.25 1017.25 1017.18 1017.76 1017.59 1017.79 1018.04 1018.59 1018.77 1018.74 1018.71
1023.63 1023.98 1024.28 1024.14 1023.74 1023.77 1023.51 1023.96 1023.79 1023.78 1024.16 1024.69 1025.13 1025.66 1026.09 1026.43 1026.53 1026.32 1025.91 1025.43 1024.75 1024.02 1023.03 1022.10 1021.23 1020.52 1019.83 1018.86 1018.08 1017.04 1016.34 1015.99 1016.09 1016.28 1016.59 1016.74 1016.71 1017.02 1017.52 1017.96 1018.05 1017.74 1017.73 1018.09 1018.52 1018.56 1018.95 1019.30 1019.39
1024.84 1025.13 1025.42 1025.18 1025.01 1024.92 1024.98 1024.79 1024.46 1024.39 1024.63 1025.16 1025.54 1026.37 1026.82 1026.84 1026.88 1026.85 1026.52 1026.10 1025.51 1024.70 1023.82 1022.81 1021.87 1021.16 1020.34 1019.26 1018.26 1017.49 1017.08 1016.82 1016.35 1016.39 1016.67 1016.89 1017.04 1017.02 1017.55 1018.04 1018.35 1018.19 1018.05 1018.16 1018.42 1018.85 1018.81 1019.50 1019.98
1025.70 1025.95 1025.99 1026.18 1026.28 1025.80 1025.95 1025.63 1025.06 1025.18 1025.38 1025.81 1026.10 1026.94 1027.34 1027.49 1027.51 1027.25 1026.99 1026.59 1025.95 1025.29 1024.54 1023.62 1022.64 1021.80 1020.77 1019.94 1018.78 1017.71 1017.46 1017.39 1017.24 1017.15 1017.08 1017.13 1017.36 1017.36 1017.57 1017.96 1018.28 1018.29 1018.34 1018.41 1018.79 1019.14 1019.20 1019.38 1020.00
1025.85 1026.24 1026.61 1026.50 1026.58 1026.73 1026.85 1026.53 1026.31 1026.03 1026.20 1026.66 1027.20 1027.59 1027.74 1027.84 1027.98 1027.71 1027.46 1027.12 1026.47 1025.62 1024.95 1024.39 1023.53 1022.65 1021.69 1020.80 1019.80 1018.76 1018.27 1018.24 1018.02 1017.88 1017.72 1017.62 1017.43 1017.47 1017.51 1017.66 1017.98 1018.17 1018.26 1018.65 1018.89 1019.32 1019.54 1019.90 1020.30
1026.25 1026.76 1027.14 1027.12 1027.03 1027.39 1027.38 1027.08 1026.93 1026.82 1027.21 1027.62 1027.85 1028.05 1028.32 1028.43 1028.42 1028.13 1027.87 1027.54 1027.16 1026.71 1025.86 1024.92 1024.32 1023.60 1022.76 1021.96 1021.05 1020.09 1019.22 1018.89 1018.66 1018.40 1018.28 1018.11 1017.98 1017.87 1017.80 1017.91 1018.02 1017.99 1018.33 1018.75 1018.58 1019.04 1019.72 1019.83 1020.02
1026.72 1027.01 1027.54 1027.98 1027.84 1028.14 1028.03 1027.86 1027.48 1027.18 1027.49 1027.79 1028.23 1028.57 1028.69 1028.73 1028.82 1028.81 1028.52 1028.32 1027.74 1027.42 1026.97 1026.13 1025.28 1024.43 1023.65 1022.81 1021.87 1020.80 1019.92 1019.39 1019.30 1019.08 1018.85 1018.62 1018.39 1018.42 1018.04 1018.46 1018.13 1018.10 1018.48 1018.85 1018.71 1019.07 1019.44 1019.99 1020.33
1026.89 1027.25 1027.72 1028.24 1028.89 1029.53 1029.33 1029.34 1028.31 1027.94 1028.07 1028.35 1028.69 1028.67 1028.91 1029.03 1029.13 1029.18 1028.98 1028.83 1028.54 1028.15 1027.51 1026.96 1026.18 1025.32 1024.43 1023.71 1022.98 1022.53 1021.98 1021.38 1021.03 1020.17 1019.77 1019.31 1019.00 1018.81 1018.70 1018.46 1018.45 1018.58 1018.73 1018.94 1019.05 1019.20 1019.58 1019.78 1020.17
1027.28 1027.72 1028.48 1029.13 1029.91 1030.71 1030.74 1030.46 1028.80 1028.54 1028.94 1029.08 1029.08 1029.10 1029.22 1029.41 1029.34 1029.28 1029.18 1029.12 1028.96 1028.58 1028.04 1027.40 1026.74 1026.11 1025.49 1024.77 1024.33 1023.72 1023.21 1022.81 1022.06 1021.32 1020.71 1020.19 1019.66 1019.48 1019.27 1018.99 1018.56 1018.53 1019.01 1019.51 1019.78 1019.64 1019.79 1019.89 1020.05
1027.39 1028.40 1029.64 1030.79 1031.49 1032.48 1031.91 1031.28 1030.02 1029.54 1029.75 1029.81 1029.70 1029.60 1029.56 1029.45 1029.37 1029.28 1029.20 1029.28 1029.12 1028.80 1028.51 1028.03 1027.48 1026.89 1026.28 1025.78 1025.27 1024.88 1024.47 1023.89 1023.11 1022.39 1022.01 1021.31 1020.82 1020.37 1020.02 1019.66 1019.21 1019.13 1018.91 1019.64 1020.13 1020.20 1020.03 1020.11 1020.33
1028.10 1029.46 1031.41 1033.11 1033.60 1034.04 1032.70 1031.81 1030.08 1029.95 1030.12 1030.40 1030.51 1030.39 1030.10 1030.16 1030.27 1030.00 1029.62 1029.48 1029.35 1029.11 1028.87 1028.51 1028.28 1027.77 1027.11 1026.60 1026.23 1025.80 1025.38 1024.96 1024.59 1024.07 1023.32 1022.51 1021.73 1021.42 1021.06 1020.21 1019.63 1019.58 1019.74 1020.11 1020.22 1020.56 1020.40 1020.37 1020.51
1029.12 1030.51 1032.54 1034.64 1036.06 1035.46 1033.49 1032.04 1030.50 1030.49 1030.57 1030.63 1030.87 1031.08 1030.78 1030.44 1030.42 1030.07 1029.71 1029.49 1029.22 1029.08 1028.90 1028.54 1028.54 1028.36 1027.72 1027.30 1026.94 1026.71 1026.34 1026.04 1025.69 1025.03 1024.32 1023.76 1022.89 1022.59 1022.25 1021.07 1020.10 1019.96 1019.89 1020.23 1020.12 1020.72 1020.65 1020.68 1020.69
1029.92 1031.18 1032.63 1034.49 1037.08 1036.55 1034.11 1032.00 1030.78 1030.86 1030.94 1031.21 1031.35 1031.23 1031.07 1030.98 1030.51 1029.99 1029.38 1029.32 1029.30 1029.12 1029.14 1028.94 1028.72 1028.87 1028.18 1027.74 1027.35 1027.21 1026.89 1026.59 1026.46 1026.05 1025.49 1024.53 1023.98 1023.43 1022.59 1021.65 1021.00 1020.51 1020.30 1020.24 1019.96 1020.97 1020.74 1021.07 1020.88
1030.07 1031.44 1032.98 1035.08 1037.39 1037.34 1035.05 1032.97 1031.26 1031.43 1031.81 1031.95 1031.87 1032.08 1031.72 1031.19 1030.59 1029.89 1029.41 1029.39 1029.22 1029.00 1028.93 1028.44 1028.88 1029.10 1029.05 1028.17 1027.50 1027.39 1027.21 1026.81 1026.68 1026.43 1025.95 1025.38 1024.79 1023.68 1023.18 1022.51 1022.10 1021.76 1021.22 1020.69 1020.67 1020.83 1020.88 1021.01 1020.94
1031.15 1032.07 1033.56 1035.15 1037.02 1037.62 1036.09 1033.41 1031.09 1031.78 1032.37 1032.46 1032.56 1032.39 1032.11 1031.74 1031.17 1030.41 1029.71 1029.25 1029.18 1029.31 1028.97 1028.78 1028.87 1028.96 1029.11 1028.69 1028.09 1027.80 1027.44 1027.19 1026.81 1026.80 1026.41 1025.97 1025.54 1024.98 1024.08 1023.10 1022.83 1022.42 1021.92 1021.40 1021.34 1021.23 1021.02 1021.04 1020.89
1031.09 1031.76 1033.30 1035.95 1037.42 1037.38 1036.49 1033.00 1031.48 1031.91 1032.54 1032.59 1032.72 1032.51 1032.40 1032.14 1031.51 1030.79 1030.15 1030.15 1030.31 1030.38 1030.04 1029.67 1029.59 1029.58 1029.27 1028.70 1028.67 1028.36 1027.81 1027.43 1027.24 1027.16 1026.88 1026.22 1025.53 1025.11 1024.71 1024.04 1023.50 1023.19 1022.67 1022.23 1021.81 1021.58 1021.34 1021.05 1020.93
Thickness
5704 5704 5701 5692 5657 5634 5617 5628 5635 5633 5637 5646 5646 5642 5630 5629 5624 5614 5644 5647 5650 5656 5655 5649 5648 5646 5659 5654 5653 5663 5676 5679 5682 5682 5682 5686 5685 5685 5686 5687 5688 5689 5688 5684 5684 5684 5683 5684 5683
5701 5702 5693 5670 5635 5617 5612 5631 5633 5634 5637 5639 5641 5637 5629 5623 5630 5633 5636 5638 5642 5645 5647 5646 5639 5640 5645 5647 5647 5654 5662 5671 5676 5678 5681 5681 5683 5683 5682 5682 5683 5684 5684 5683 5679 5680 5681 5680 5680
5699 5694 5674 5647 5621 5611 5616 5633 5634 5636 5636 5635 5637 5630 5627 5615 5623 5620 5623 5630 5635 5637 5641 5643 5643 5639 5638 5634 5638 5652 5656 5661 5663 5665 5670 5674 5677 5678 5676 5677 5677 5678 5680 5678 5676 5675 5677 5676 5675
5690 5681 5659 5630 5626 5631 5631 5634 5634 5631 5633 5634 5629 5620 5623 5619 5615 5611 5617 5623 5629 5629 5632 5638 5641 5638 5637 5637 5640 5633 5643 5651 5654 5654 5656 5660 5663 5668 5674 5674 5676 5674 5674 5673 5672 5670 5672 5670 5670
5679 5662 5632 5621 5626 5632 5634 5635 5632 5625 5624 5624 5626 5620 5615 5616 5614 5612 5612 5615 5619 5621 5625 5627 5628 5635 5628 5626 5627 5628 5631 5641 5646 5644 5646 5650 5652 5656 5660 5664 5669 5670 5669 5669 5668 5666 5666 5665 5666
5662 5648 5620 5612 5621 5627 5632 5633 5631 5624 5621 5624 5620 5617 5609 5610 5610 5609 5609 5608 5609 5611 5616 5618 5619 5619 5621 5618 5625 5628 5628 5638 5637 5638 5639 5641 5640 5641 5644 5650 5660 5664 5663 5663 5663 5660 5659 5660 5660
5650 5633 5618 5614 5614 5622 5625 5627 5623 5622 5619 5618 5618 5612 5610 5609 5607 5606 5606 5604 5603 5604 5605 5610 5611 5614 5614 5618 5619 5617 5620 5625 5629 5639 5634 5631 5631 5634 5637 5644 5655 5663 5659 5658 5656 5653 5653 5654 5653
5643 5633 5622 5610 5609 5613 5620 5623 5621 5619 5618 5618 5618 5602 5600 5603 5604 5603 5603 5600 5601 5599 5598 5597 5602 5603 5607 5613 5614 5612 5610 5613 5616 5626 5629 5631 5629 5626 5633 5638 5649 5659 5654 5649 5648 5648 5646 5646 5647
5647 5617 5606 5612 5613 5611 5614 5616 5613 5611 5612 5611 5607 5604 5599 5595 5596 5596 5598 5602 5600 5594 5590 5590 5591 5596 5598 5604 5607 5606 5607 5608 5611 5610 5614 5612 5624 5630 5627 5634 5635 5621 5632 5635 5637 5637 5639 5638 5638
5631 5609 5617 5614 5614 5607 5606 5607 5604 5606 5599 5603 5599 5599 5595 5591 5588 5586 5584 5583 5586 5584 5582 5583 5584 5586 5591 5595 5601 5600 5601 5602 5606 5606 5602 5609 5612 5616 5618 5626 5631 5619 5612 5613 5620 5624 5629 5630 5629
5631 5613 5617 5613 5612 5609 5604 5600 5597 5596 5595 5596 5593 5589 5586 5580 5578 5577 5574 5571 5571 5573 5575 5574 5577 5580 5582 5587 5592 5597 5595 5595 5600 5599 5597 5599 5599 5605 5616 5610 5609 5620 5607 5599 5603 5612 5617 5619 5619
5616 5614 5614 5613 5609 5605 5599 5600 5591 5590 5589 5589 5585 5582 5574 5568 5561 5560 5561 5563 5565 5567 5568 5570 5570 5573 5576 5577 5582 5589 5589 5589 5590 5592 5591 5588 5588 5589 5594 5597 5600 5594 5602 5586 5592 5599 5600 5605 5608
5610 5605 5605 5602 5598 5600 5599 5593 5588 5582 5578 5579 5576 5569 5561 5557 5556 5554 5551 5553 5554 5556 5559 5561 5564 5565 5567 5571 5573 5579 5581 5579 5580 5581 5582 5581 5579 5578 5584 5589 5582 5585 5586 5586 5584 5586 5586 5592 5596
5604 5600 5596 5596 5593 5595 5593 5587 5583 5579 5577 5572 5565 5555 5550 5546 5543 5542 5543 5544 5545 5545 5547 5551 5554 5557 5558 5562 5567 5569 5573 5571 5571 5571 5572 5572 5568 5568 5572 5574 5572 5573 5578 5577 5580 5577 5575 5581 5585
5601 5596 5593 5586 5587 5586 5583 5582 5575 5572 5571 5563 5553 5546 5539 5533 5527 5522 5524 5528 5530 5535 5537 5538 5543 5546 5548 5554 5557 5561 5565 5564 5563 5562 5563 5564 5559 5562 5562 5564 5566 5563 5567 5568 5570 5567 5567 5570 5574
5588 5577 5575 5577 5578 5576 5577 5564 5570 5565 5559 5553 5547 5535 5527 5520 5514 5512 5512 5514 5517 5520 5525 5528 5531 5533 5537 5542 5546 5551 5555 5557 5557 5555 5553 5553 5554 5555 5552 5552 5553 5558 5558 5557 5557 5560 5558 5559 5562
5564 5571 5565 5567 5558 5560 5557 5556 5560 5555 5547 5541 5534 5519 5512 5507 5504 5499 5498 5498 5501 5505 5509 5514 5518 5520 5524 5530 5535 5539 5541 5543 5545 5546 5544 5544 5546 5548 5546 5545 5545 5548 5549 5549 5550 5550 5554 5551 5551
5571 5562 5556 5552 5543 5544 5545 5541 5545 5539 5534 5525 5518 5502 5498 5493 5489 5487 5486 5486 5487 5489 5492 5496 5502 5505 5510 5515 5522 5529 5531 5530 5532 5532 5532 5534 5535 5537 5538 5538 5538 5541 5541 5541 5540 5540 5542 5545 5543
5559 5554 5543 5539 5543 5535 5533 5522 5524 5522 5517 5506 5497 5490 5489 5484 5476 5475 5473 5471 5472 5476 5478 5479 5483 5487 5493 5498 5505 5512 5516 5517 5518 5519 5520 5521 5526 5530 5532 5534 5534 5535 5536 5536 5535 5532 5533 5532 5532
5549 5542 5530 5528 5531 5526 5516 5514 5510 5508 5503 5489 5487 5481 5474 5468 5464 5462 5458 5456 5455 5456 5460 5465 5466 5469 5473 5478 5485 5492 5499 5502 5504 5507 5509 5511 5512 5517 5523 5524 5528 5528 5528 5527 5531 5529 5525 5526 5527
5534 5532 5526 5522 5515 5510 5504 5510 5497 5507 5496 5488 5473 5466 5460 5456 5450 5444 5442 5439 5439 5439 5440 5444 5448 5452 5456 5460 5467 5475 5482 5487 5490 5494 5496 5498 5502 5504 5511 5512 5518 5523 5521 5519 5522 5522 5522 5518 5517
5535 5527 5523 5517 5504 5491 5487 5460 5491 5489 5481 5472 5461 5453 5450 5443 5438 5432 5428 5425 5422 5421 5423 5425 5429 5433 5438 5441 5446 5450 5455 5461 5465 5474 5480 5484 5489 5492 5494 5495 5504 5508 5505 5509 5511 5513 5512 5513 5512
5529 5519 5511 5508 5488 5478 5471 5443 5477 5476 5467 5457 5449 5446 5440 5431 5427 5422 5416 5412 5407 5404 5404 5405 5408 5413 5417 5420 5423 5429 5433 5438 5446 5454 5462 5469 5474 5478 5479 5485 5487 5496 5495 5496 5497 5500 5503 5504 5506
5516 5507 5486 5470 5466 5400 5462 5455 5459 5457 5454 5442 5435 5429 5427 5423 5418 5411 5405 5396 5391 5388 5384 5384 5387 5390 5394 5399 5402 5406 5411 5418 5426 5435 5440 5449 5455 5460 5465 5470 5476 5481 5486 5484 5484 5487 5492 5493 5495
5499 5478 5411 5423 5399 5402 5447 5443 5452 5446 5435 5427 5421 5415 5413 5405 5395 5389 5387 5379 5372 5369 5368 5365 5363 5367 5372 5377 5381 5386 5391 5397 5402 5409 5418 5427 5438 5443 5448 5457 5464 5469 5469 5469 5473 5474 5479 5483 5485
5485 5471 5411 5400 5392 5409 5430 5412 5449 5429 5417 5412 5407 5400 5396 5389 5380 5374 5367 5360 5354 5351 5349 5349 5346 5346 5352 5359 5363 5367 5371 5377 5382 5391 5398 5406 5418 5425 5427 5439 5451 5454 5459 5460 5465 5463 5465 5470 5475
5476 5440 5453 5385 5336 5360 5411 5434 5438 5416 5403 5396 5392 5386 5379 5370 5365 5358 5353 5344 5338 5336 5333 5333 5333 5331 5339 5344 5349 5352 5356 5361 5365 5373 5379 5390 5398 5405 5415 5425 5433 5442 5445 5450 5455 5449 5454 5456 5464
5470 5453 5422 5379 5364 5347 5387 5410 5425 5407 5390 5382 5375 5366 5360 5353 5349 5347 5339 5332 5328 5325 5322 5324 5320 5320 5322 5330 5336 5339 5343 5347 5350 5356 5363 5371 5383 5393 5399 5408 5416 5422 5428 5435 5439 5441 5442 5445 5451
5430 5418 5416 5410 5388 5351 5335 5383 5410 5390 5378 5370 5358 5352 5341 5338 5334 5333 5328 5321 5316 5311 5311 5310 5310 5310 5309 5312 5319 5324 5329 5334 5338 5342 5348 5355 5363 5371 5383 5394 5400 5407 5413 5421 5425 5430 5434 5436 5441
5443 5440 5418 5371 5372 5363 5350 5381 5400 5376 5363 5359 5347 5339 5332 5324 5321 5320 5317 5305 5295 5291 5292 5294 5294 5293 5296 5301 5304 5308 5315 5321 5325 5329 5335 5343 5351 5359 5366 5376 5384 5390 5397 5405 5413 5418 5422 5427 5432